Theta_e
298 296 296 296 301 304 307 307 306 306 306 306 307 309 309 309 308 306 309 310 310 311 312 316 319 320 320 321 324 323 323 324 322 326 331 331 332 331 332 329 330 330 330 330 330 331 331 330 329 333 332 330 329 327
298 297 297 296 301 303 307 308 305 307 308 308 309 308 308 308 308 308 308 309 310 310 313 316 317 319 319 321 320 321 325 325 326 329 327 328 331 329 331 335 329 331 331 333 332 332 326 329 328 326 328 328 326 325
298 298 297 296 300 303 307 309 305 308 308 308 307 307 305 305 307 307 309 313 310 311 315 317 318 319 322 322 320 320 323 325 326 325 328 328 332 328 334 333 334 331 327 332 332 327 327 327 325 326 327 325 323 322
298 298 298 296 298 302 306 308 308 307 309 308 307 305 304 305 306 306 310 312 311 309 314 317 317 320 322 322 317 319 323 324 324 324 324 328 330 323 330 332 334 331 329 329 326 325 326 326 326 324 321 320 319 319
299 298 298 297 296 301 305 308 309 308 309 309 308 307 304 305 306 306 309 312 312 308 311 314 317 319 320 321 322 322 322 322 322 325 324 328 323 327 325 329 332 329 330 333 334 327 327 328 324 321 320 320 320 321
299 299 298 298 296 300 305 308 309 310 308 309 308 308 308 308 307 309 311 313 311 309 309 315 315 319 319 320 322 321 322 322 322 326 326 324 322 326 331 333 326 328 327 324 327 323 322 325 321 320 321 321 320 320
299 299 298 298 297 300 307 309 309 310 309 309 308 309 308 308 308 310 312 312 311 311 311 314 318 318 319 318 321 321 321 322 322 322 326 326 323 325 327 331 327 328 325 325 322 320 323 322 321 321 321 322 322 322
300 299 299 298 298 299 307 310 310 310 310 308 310 310 309 310 309 309 310 312 311 310 311 313 316 319 318 317 320 321 321 320 321 323 324 326 323 325 330 325 327 326 324 321 321 321 322 321 321 322 322 321 321 321
299 299 299 299 299 298 304 309 310 310 309 308 308 307 309 310 311 311 311 311 311 311 312 316 319 321 318 319 319 320 320 325 320 324 323 323 322 328 327 325 327 325 323 321 321 322 322 322 323 322 321 320 319 320
299 299 300 299 299 298 301 309 310 310 307 307 306 307 308 310 310 311 311 312 308 308 311 314 314 320 319 319 321 321 319 323 326 324 318 323 324 321 320 322 327 325 323 321 323 323 323 323 322 321 320 319 319 316
300 300 299 299 300 299 299 307 310 310 307 307 307 307 309 310 310 310 312 311 307 306 309 313 314 317 316 321 323 320 321 320 324 326 324 323 325 325 322 324 325 324 323 321 323 323 323 323 321 320 321 320 318 317
299 298 298 299 299 299 298 303 309 309 307 307 307 307 310 310 311 312 312 311 308 308 306 312 314 314 315 318 321 322 322 321 323 320 323 322 323 323 323 325 325 324 321 321 322 324 323 322 320 319 319 318 318 318
297 297 298 298 299 299 298 301 308 309 308 307 308 308 310 310 311 312 313 313 309 308 307 310 314 314 318 318 320 322 323 323 320 322 323 322 321 323 326 325 324 323 321 322 323 322 320 320 320 320 320 319 319 318
297 297 297 299 299 298 300 305 308 308 310 308 309 309 310 311 311 313 312 312 309 308 307 309 313 317 317 319 320 322 321 321 324 325 324 323 322 325 325 324 323 322 322 321 322 320 320 321 321 321 321 321 319 317
296 297 299 299 299 297 302 305 306 307 308 307 307 310 310 310 309 309 310 310 310 309 308 311 314 318 320 319 319 320 320 322 323 324 324 320 321 325 325 323 323 322 322 321 319 319 320 321 321 321 321 318 316 315
297 298 299 299 299 297 301 303 305 306 306 305 304 307 308 308 309 308 309 310 309 310 310 313 316 319 320 320 320 321 320 322 322 321 319 320 321 325 325 323 323 323 322 322 320 319 320 321 320 317 315 315 313 312
299 299 299 299 298 298 302 302 302 304 304 302 303 305 306 307 307 309 309 309 308 310 312 315 318 318 318 321 320 319 320 321 320 323 323 322 322 324 325 324 323 323 323 323 322 320 321 319 316 315 315 312 312 313
299 299 299 299 296 297 302 301 301 302 303 303 303 305 305 307 308 309 311 312 311 309 311 315 316 318 319 320 319 319 318 319 320 320 321 322 322 324 325 324 323 323 323 323 323 321 319 316 315 315 313 312 313 311
299 299 298 297 295 299 300 300 300 301 301 302 303 303 304 305 306 308 309 310 311 309 312 316 318 318 318 318 318 316 318 318 321 321 322 323 322 323 324 324 324 323 324 324 321 318 316 316 315 312 312 312 311 310
298 298 296 295 297 298 300 300 300 300 301 303 303 304 305 307 308 311 312 312 312 312 315 317 317 317 316 315 315 316 317 318 321 320 322 321 321 322 323 321 322 323 323 320 317 316 315 313 312 311 312 312 311 309
298 297 295 296 297 299 299 300 301 300 301 303 306 305 307 309 309 310 313 312 313 314 315 316 312 311 312 315 315 315 316 318 322 321 322 320 319 321 321 320 319 319 319 316 316 315 313 312 311 310 309 309 310 309
298 298 298 297 298 298 299 299 302 302 302 304 307 307 310 310 312 314 313 313 314 314 313 314 313 314 313 313 314 315 315 321 322 322 321 321 320 320 320 322 321 316 316 316 316 314 312 311 310 309 309 309 309 309
301 299 299 298 300 299 301 301 302 302 305 306 308 310 310 313 313 313 315 314 316 315 313 313 313 315 316 316 315 316 319 321 321 321 321 320 320 320 321 322 321 320 315 316 315 313 312 311 310 309 308 308 308 309
300 299 300 301 300 301 302 303 303 303 304 307 308 308 311 312 312 314 315 315 315 316 312 315 317 318 319 319 321 319 318 317 319 320 319 318 320 321 320 319 319 317 316 316 315 312 312 312 311 310 309 309 308 308
299 300 300 300 300 301 303 305 304 305 305 308 308 310 312 311 312 312 314 315 315 313 313 317 318 318 319 319 319 319 319 317 318 318 319 319 317 319 318 319 319 316 316 316 313 312 312 312 312 311 310 310 310 310
300 300 300 301 302 303 304 307 306 305 305 309 310 312 312 313 313 313 313 315 314 312 313 316 317 316 315 316 316 317 318 319 319 318 318 319 319 319 319 319 317 316 316 314 312 312 312 312 312 312 311 310 309 309
302 302 299 300 302 303 305 308 308 310 311 312 311 312 312 313 313 312 312 313 314 312 315 316 317 317 318 318 318 318 318 319 319 319 318 319 319 318 318 318 317 317 317 314 312 312 312 312 311 311 311 310 309 309
303 303 304 304 304 305 307 308 309 310 309 310 311 312 313 311 314 313 313 314 315 316 315 316 317 317 317 317 318 318 318 317 317 317 318 318 318 318 318 317 317 317 317 316 314 314 314 313 312 311 311 310 310 310
300 303 305 307 306 307 307 309 309 309 308 307 312 313 313 313 313 313 314 314 314 315 315 314 315 316 317 316 317 317 316 315 316 317 317 317 317 318 318 318 317 317 317 317 316 315 315 315 314 314 313 312 312 312
304 305 307 307 307 307 306 307 309 309 310 311 312 312 312 312 312 313 314 314 314 315 315 316 316 316 316 315 315 315 315 315 315 316 315 316 316 316 317 317 317 317 316 316 315 314 314 315 315 315 315 313 313 313
306 307 306 306 308 307 308 309 310 311 311 311 312 311 311 311 312 313 313 313 314 314 314 314 313 312 312 314 315 314 314 315 315 315 314 314 314 314 314 316 316 316 316 315 315 316 315 315 315 314 314 313 313 313
306 307 307 309 309 308 309 309 309 309 310 311 311 311 311 312 312 311 311 312 312 312 312 312 312 312 313 314 314 314 314 314 314 314 313 313 314 314 313 314 315 315 315 314 314 313 312 311 311 312 313 312 311 310
307 308 309 309 309 310 309 309 309 310 309 310 310 310 310 310 311 313 312 312 312 312 312 312 312 313 313 314 314 314 314 313 313 313 312 313 314 314 314 314 314 313 314 313 313 313 313 313 311 310 310 310 310 310
Wind_Speed
14 13 13 14 15 17 17 18 11 5 1 4 9 8 9 15 15 11 10 11 16 7 23 9 6 5 6 5 3 2 4 5 4 4 4 3 2 3 4 3 2 4 5 3 4 3 4 14 8 6 4 15 17 14
14 12 13 13 14 15 15 15 8 3 2 3 6 8 10 10 8 9 15 15 19 12 10 12 8 7 9 4 6 3 8 4 12 4 3 3 2 2 2 4 2 3 2 5 1 3 4 14 4 5 11 20 15 16
13 12 12 12 12 14 12 11 7 1 3 4 8 10 10 9 6 7 10 14 23 6 11 4 1 2 5 6 8 6 4 9 6 6 1 1 3 1 2 3 5 3 1 4 6 3 6 8 9 14 16 17 18 18
13 12 11 12 10 12 12 7 7 4 5 5 9 12 9 6 5 8 8 11 18 8 4 2 8 4 6 6 8 9 12 12 13 5 2 1 3 3 1 3 3 2 8 9 5 5 10 9 12 18 20 23 23 21
12 12 11 11 10 11 12 6 6 4 7 8 9 13 16 12 8 9 11 13 10 10 5 8 5 5 5 8 15 13 10 13 12 3 1 2 2 3 2 1 3 7 7 5 4 20 4 21 20 22 25 23 23 23
12 11 10 10 9 10 11 4 6 5 10 9 11 12 13 11 8 6 4 3 15 18 4 3 2 3 0 5 6 5 7 5 4 7 4 1 4 3 2 2 3 6 9 6 6 26 8 27 26 24 23 22 19 17
13 11 10 9 9 8 8 3 5 4 9 12 14 12 12 10 10 5 2 8 17 19 3 5 3 1 1 3 2 1 4 4 3 3 3 2 2 0 1 2 8 8 9 8 30 28 23 27 24 23 22 20 18 16
11 11 10 9 9 7 7 4 4 5 7 18 14 10 10 12 11 13 12 12 16 9 4 3 1 1 2 1 1 2 1 2 6 2 3 1 1 2 1 5 13 13 14 22 25 9 23 28 28 23 23 23 21 19
10 10 9 9 9 7 6 6 4 4 12 21 15 5 2 8 3 6 10 14 15 7 3 2 3 1 2 1 2 3 3 3 4 1 2 1 1 3 2 11 19 22 16 28 16 18 30 33 29 26 26 21 20 19
9 8 9 10 9 8 6 7 7 5 20 18 7 1 2 4 5 3 7 3 3 4 5 3 2 1 1 1 1 1 1 1 1 1 1 2 2 4 6 7 18 24 19 31 27 28 30 29 31 30 27 23 20 20
9 8 8 9 10 9 7 6 8 12 22 15 5 4 3 3 4 3 4 2 2 3 5 5 7 2 1 1 2 1 1 1 1 2 2 2 3 5 10 9 21 22 23 28 20 23 32 34 33 30 24 22 20 19
10 10 10 9 10 11 8 8 12 20 19 16 7 5 2 3 3 3 2 2 4 3 3 3 4 6 1 1 1 2 2 1 1 1 2 2 3 11 16 20 26 24 29 26 21 28 29 29 29 28 26 23 20 18
11 11 11 10 9 10 9 10 13 20 17 19 6 6 4 3 3 5 6 4 3 3 4 4 3 4 2 1 3 1 1 2 1 2 3 3 1 11 19 25 25 24 26 22 24 29 30 29 27 25 24 21 18 18
11 11 11 10 8 9 7 7 10 16 13 6 6 3 4 4 6 6 4 1 2 2 4 5 3 2 2 2 2 3 0 2 2 2 3 2 5 16 21 25 31 31 28 27 31 31 29 27 24 21 19 19 18 18
11 11 10 10 9 10 11 6 11 17 7 4 4 4 6 9 4 3 3 5 5 7 3 3 2 3 2 3 1 1 2 3 3 3 2 1 11 22 26 29 31 34 32 30 30 29 27 24 21 20 20 19 17 16
11 11 14 10 10 12 12 9 3 4 5 3 4 3 6 4 6 7 8 9 6 5 4 3 2 2 2 2 3 4 2 4 2 2 4 5 14 25 31 33 37 36 34 31 28 27 25 23 23 24 21 17 15 14
14 19 13 11 11 12 11 8 3 3 5 3 4 7 10 7 8 6 4 3 6 4 2 2 4 3 3 3 4 4 4 1 3 7 9 6 16 27 35 33 38 37 33 30 27 27 26 26 25 22 19 17 15 15
20 17 11 13 14 16 10 8 4 3 4 6 5 3 8 8 6 7 5 3 2 5 3 2 3 4 4 5 3 3 5 6 8 8 8 5 14 26 35 35 39 38 34 30 26 27 28 28 23 20 17 18 19 16
18 13 13 17 16 11 4 7 4 3 8 7 9 11 11 12 13 16 16 12 6 6 4 3 3 3 3 5 4 3 2 7 6 6 3 4 12 23 32 33 38 38 34 30 26 29 28 23 20 18 18 20 20 17
12 12 14 17 16 6 3 2 6 4 5 7 9 9 9 10 10 9 10 10 10 4 6 4 5 4 5 7 7 2 7 9 6 5 5 8 14 23 29 31 36 35 30 30 31 28 24 21 18 17 17 19 18 21
15 15 16 16 15 7 4 5 7 5 5 7 6 11 7 8 11 14 8 7 9 7 6 10 16 19 17 9 9 10 10 10 6 7 11 16 19 25 27 27 29 30 32 33 30 26 24 21 19 18 17 18 18 20
14 17 14 17 7 7 6 8 5 4 5 7 4 10 6 10 11 10 5 8 5 11 13 11 13 15 19 20 18 12 9 6 8 5 14 20 27 28 30 30 24 29 31 29 26 25 23 21 19 17 19 19 18 19
16 18 9 10 7 10 5 11 8 5 4 4 7 4 5 6 8 10 5 5 6 13 16 11 11 11 11 11 12 8 5 6 10 19 21 19 23 25 27 28 32 28 33 29 24 23 24 23 20 19 20 18 18 20
13 10 6 8 11 4 6 9 8 7 6 5 4 5 6 6 6 5 1 3 7 14 14 10 10 9 5 7 11 19 16 9 9 13 15 17 26 30 29 26 26 36 31 26 24 24 23 24 22 20 19 18 18 18
5 7 6 5 8 6 5 5 5 5 5 5 7 4 5 5 3 2 2 4 13 13 14 12 12 13 14 16 14 10 16 16 11 11 12 14 21 29 29 27 31 34 29 24 25 25 24 22 22 21 20 18 17 15
5 9 9 9 7 6 7 4 9 8 5 8 7 5 4 3 4 4 3 6 16 13 16 15 16 20 20 21 19 13 12 12 10 9 10 12 14 22 30 31 32 31 27 24 26 27 24 22 21 20 19 16 15 15
4 5 9 10 6 6 5 9 6 3 5 4 4 3 3 3 5 5 7 12 15 15 10 18 15 16 16 22 19 14 12 12 10 7 7 9 11 14 21 27 30 29 27 27 27 25 24 22 21 20 19 19 20 19
5 4 3 3 7 5 1 1 1 1 2 5 9 2 5 6 3 5 6 12 14 18 26 22 18 13 14 14 13 14 14 12 10 9 10 11 10 12 15 20 23 27 26 24 27 25 23 22 21 20 20 22 22 20
5 6 8 1 5 2 1 0 1 3 3 7 4 3 3 3 5 11 16 19 22 22 21 18 14 14 13 12 11 10 10 9 9 10 11 12 12 13 15 17 19 22 20 21 14 24 19 19 23 23 21 19 17 18
3 6 2 6 4 3 2 1 1 4 7 7 8 13 15 15 15 18 18 18 17 16 15 14 15 14 13 11 11 11 11 9 7 5 8 9 9 8 11 15 20 23 21 19 17 23 26 19 25 23 22 21 19 16
7 6 4 6 4 9 13 16 20 22 22 22 23 20 13 12 16 14 13 13 13 14 14 14 14 12 9 8 9 9 8 8 8 6 7 8 7 6 8 11 13 17 17 15 16 21 23 21 16 12 11 13 14 14
5 5 2 2 3 9 10 11 10 8 10 13 12 13 11 8 5 4 6 7 9 9 9 8 7 8 9 9 8 5 5 8 7 6 5 4 4 4 8 13 11 13 17 15 15 12 9 7 8 13 14 12 12 12
3 5 5 3 3 4 6 4 6 4 6 4 5 5 5 3 3 3 7 8 7 7 8 10 9 8 8 9 10 9 8 7 8 9 6 4 7 9 12 13 13 13 15 14 14 15 16 16 14 12 10 10 12 12
Wind_Direction
295 298 303 310 320 332 334 330 337 341 318 211 219 217 213 194 196 218 258 286 279 270 283 268 270 227 226 226 169 189 123 53 303 243 240 202 204 81 99 72 100 118 120 117 120 114 184 157 134 196 104 129 143 147
289 294 300 306 319 330 334 339 331 342 90 195 207 192 165 169 203 246 278 315 328 271 268 292 284 238 231 264 176 108 122 200 223 244 190 187 136 118 151 112 52 112 59 143 334 106 114 157 96 152 144 143 142 140
286 293 294 299 315 325 333 332 329 279 182 170 170 169 151 168 199 270 311 334 349 289 300 277 200 331 100 155 148 100 304 236 247 272 260 90 97 148 130 119 115 94 118 90 166 86 140 159 130 142 148 143 142 142
285 290 291 296 308 318 325 298 321 234 202 197 189 191 198 218 232 266 299 341 349 320 284 317 29 56 84 90 204 214 257 284 273 279 270 138 159 211 110 110 105 84 149 126 94 124 125 150 151 146 143 142 141 140
281 285 289 293 304 314 315 274 295 260 227 214 205 205 221 236 249 273 283 318 331 352 306 301 12 78 136 108 169 215 236 236 234 306 354 189 128 119 65 175 133 182 153 174 179 172 136 168 157 152 144 145 146 146
277 283 285 290 298 309 314 276 284 264 220 212 203 190 210 233 255 303 323 49 348 344 297 303 13 101 194 176 157 228 235 208 185 154 195 105 136 201 164 123 126 168 161 144 151 155 144 150 151 153 148 151 155 160
272 277 276 284 292 304 320 241 281 258 215 200 179 184 202 226 239 226 257 317 325 332 289 296 340 293 212 221 215 287 349 28 17 86 59 105 147 218 132 113 168 153 149 140 142 128 118 148 156 155 153 154 155 157
266 273 271 274 283 293 316 226 270 252 240 180 170 168 195 224 234 251 259 297 311 319 281 286 270 283 334 288 255 2 351 55 34 29 44 5 145 349 111 114 149 148 135 140 147 145 155 149 149 150 151 149 145 145
261 265 265 268 273 283 295 220 226 250 183 182 184 146 162 212 226 239 269 287 287 250 278 259 294 48 341 5 349 346 13 46 356 9 97 270 148 207 198 164 167 164 159 158 146 138 145 148 151 153 154 154 149 151
253 262 266 262 263 272 274 220 203 202 180 193 177 324 277 184 217 258 286 263 262 228 226 249 231 250 207 128 79 242 348 81 212 49 89 240 234 256 189 205 187 172 164 154 134 144 151 155 157 158 160 161 157 156
254 264 270 266 256 253 257 230 197 185 187 183 183 215 263 182 151 194 267 285 307 257 215 232 213 277 140 237 128 14 110 138 203 137 240 207 243 207 201 177 177 173 174 170 173 172 164 159 159 160 164 167 169 171
250 267 269 269 258 248 240 231 202 183 187 188 174 213 199 178 162 224 231 270 232 256 227 213 226 202 222 159 113 76 33 220 232 89 240 240 231 192 177 164 166 168 168 170 171 159 161 162 162 165 169 175 180 181
247 262 269 268 258 239 237 230 213 194 182 189 203 181 218 186 182 209 203 204 231 217 220 193 182 171 145 98 61 36 346 255 51 204 237 249 281 175 164 160 161 164 164 163 161 163 164 163 167 171 175 181 185 186
252 261 264 258 246 226 215 205 196 198 176 168 181 193 214 184 224 204 216 175 239 309 300 217 153 187 151 125 121 187 238 258 234 230 243 276 191 167 161 161 157 160 161 159 160 163 165 167 172 178 184 186 187 188
251 251 242 244 229 210 194 179 188 195 174 174 200 211 222 238 262 250 286 255 265 295 316 189 163 209 118 121 130 131 213 250 235 233 254 270 181 169 165 163 162 157 161 161 163 166 169 173 178 181 183 183 185 190
241 233 231 225 212 202 193 202 189 150 156 196 226 252 243 270 262 249 245 255 263 268 289 250 189 183 125 118 186 204 219 231 239 239 297 287 190 181 177 173 166 163 165 165 168 174 178 182 179 173 173 180 187 191
218 226 225 206 192 177 185 193 168 207 212 216 234 236 258 284 267 268 273 243 206 170 227 212 202 151 119 175 208 194 226 228 341 331 317 258 202 187 181 175 172 169 169 173 177 180 182 178 175 176 179 180 177 176
204 218 202 193 183 176 177 181 202 227 239 244 243 244 231 232 268 277 268 270 234 204 194 270 147 198 194 183 214 218 258 321 324 330 318 272 201 191 186 178 176 175 175 179 182 181 177 176 179 181 183 178 173 177
197 187 181 178 173 164 165 179 184 254 232 254 259 251 263 273 270 267 263 271 256 239 283 216 236 216 211 210 224 189 348 327 295 300 307 216 200 196 187 184 181 179 181 182 176 174 175 179 184 185 184 181 179 176
159 166 171 170 161 165 175 202 189 234 231 228 239 239 239 251 272 282 268 258 231 200 229 224 219 241 226 236 216 259 320 331 264 171 162 175 185 187 184 183 180 177 173 167 170 170 173 174 177 182 185 185 182 178
154 152 162 169 179 193 208 206 207 226 248 241 244 229 245 244 240 247 259 224 188 211 211 231 229 240 257 260 285 311 334 331 235 211 198 171 176 183 179 176 173 169 166 164 167 174 176 175 171 172 176 177 174 176
176 176 171 184 193 201 242 229 213 197 223 248 248 211 223 213 224 204 192 198 233 214 209 211 222 223 229 249 271 287 306 301 181 202 176 169 166 176 172 163 168 168 168 169 173 172 172 169 164 162 164 168 174 177
164 177 173 188 222 205 233 204 195 213 230 226 183 213 223 198 190 187 206 218 234 205 202 200 208 220 237 245 249 252 184 124 161 156 158 166 169 174 170 165 160 183 187 177 175 177 173 170 163 161 162 165 169 172
171 181 194 202 207 220 200 199 197 193 226 239 205 213 185 161 166 186 271 257 222 183 172 167 183 178 183 217 195 147 130 149 158 180 181 177 171 168 157 157 166 192 186 177 176 173 173 173 174 172 174 174 177 184
183 209 204 209 202 208 215 190 189 186 214 226 203 195 164 143 121 127 249 267 191 172 161 157 163 170 139 118 135 159 163 177 200 181 178 188 192 182 179 177 194 192 192 182 177 176 177 180 185 189 191 193 198 202
219 211 201 197 189 201 194 215 193 192 179 204 200 142 136 136 147 185 224 222 185 179 173 164 147 137 133 129 138 170 195 173 173 177 170 172 183 195 185 184 185 189 191 188 182 179 181 186 191 193 196 197 197 201
239 238 218 216 204 204 226 235 254 142 140 112 132 152 149 172 199 193 234 217 186 177 161 140 150 157 167 193 193 180 168 153 149 152 154 161 169 189 189 185 187 189 186 188 191 187 184 187 191 193 195 194 196 201
265 270 241 190 191 229 194 72 60 73 75 136 129 193 185 188 174 170 166 170 170 184 187 200 212 198 168 154 156 156 153 153 160 165 162 163 172 184 201 212 210 197 197 195 198 204 207 206 203 201 199 200 205 213
249 266 301 190 149 122 241 166 150 224 194 168 163 155 139 90 128 147 153 151 152 166 172 172 162 162 159 149 146 148 151 146 150 157 171 179 185 193 196 198 203 203 202 207 221 211 219 223 224 222 220 216 219 226
319 354 276 351 60 74 26 89 89 114 127 133 115 104 88 88 104 123 135 143 146 151 153 153 149 151 151 156 159 159 164 172 178 192 182 178 177 182 189 193 192 194 200 210 210 190 204 228 234 223 220 229 227 227
342 9 38 21 9 17 27 77 91 98 99 100 108 100 93 87 84 91 106 116 127 132 139 144 145 144 150 163 177 181 174 167 161 153 137 137 152 169 185 189 190 197 201 197 198 205 214 222 211 205 213 222 229 232
19 35 59 50 2 19 50 55 63 66 68 81 77 95 94 86 70 78 118 140 147 149 148 152 155 165 163 158 163 160 170 168 167 172 158 178 184 176 171 170 176 181 176 165 164 160 169 184 181 197 211 221 232 234
41 59 67 66 31 28 26 63 43 46 47 53 47 70 81 90 101 120 146 139 135 156 169 173 173 172 177 174 175 173 160 169 179 188 185 189 179 168 165 160 153 157 165 174 180 183 186 189 196 210 221 235 234 235